Chicago Executive, IL

9:43 AM CDT on March 26, 2017 (GMT -0500)
Chicago Executive

Weather History for KPWK - April, 2013

Change the Weather History Date:

Wednesday, April 10, 2013

  Actual Average Record
Temperature  
Mean Temperature 39 °F 46 °F  
Max Temperature 41 °F 56 °F 84 °F (2011)
Min Temperature 37 °F 36 °F 21 °F (1997)
Degree Days  
Heating Degree Days 26 19  
Month to date heating degree days 231 208  
Since 1 July heating degree days 5763 5799  
Cooling Degree Days 0 0  
Month to date cooling degree days 0 0  
Year to date cooling degree days 0 0  
Moisture  
Dew Point 37 °F    
Average Humidity 93    
Maximum Humidity 97    
Minimum Humidity 89    
Precipitation  
Precipitation 0.00 in 0.08 in 0.64 in (2008)
Month to date precipitation 0.09 0.78  
Year to date precipitation 5.87 5.61  
Sea Level Pressure  
Sea Level Pressure 29.95 in    
Wind  
Wind Speed 12 mph (NE)    
Max Wind Speed 29 mph    
Max Gust Speed 44 mph    
Visibility 7 miles    
Events Rain , Thunderstorm    
T = Trace of Precipitation, MM = Missing Value Source: NWS Daily Summary

Daily Weather History Graph

Daily Weather History Graph

Search for Another Location

Airport or City:

Trip Planner

Search our weather history database for the weather conditions in past years. The results will help you decide how hot, cold, wet, or windy it might be!

Date:

Astronomy

Apr. 10, 2013 Rise Set
Actual Time 6:18 AM CDT 7:27 PM CDT
Civil Twilight 5:49 AM CDT 7:56 PM CDT
Nautical Twilight 5:15 AM CDT 8:30 PM CDT
Astronomical Twilight 4:39 AM CDT 9:07 PM CDT
Moon 6:14 AM CDT (4/10) 8:04 PM CDT (4/10)
Length of Visible Light 14h 06m
Length of Day
13h 08m
New Moon, 0% of the Moon is Illuminated
Apr 10
New Moon
Apr 18
First Quarter
Apr 25
Full
May 2
Last Quarter
May 9
New

Hourly Weather History & Observations

Time (CDT) Temp. Windchill Dew Point Humidity Pressure Visibility Wind Dir Wind Speed Gust Speed Precip Events Conditions
12:52 AM 39.9 °F 31.8 °F 37.0 °F 89% 29.98 in 9.0 mi NNE 15.0 mph 21.9 mph N/A   Overcast
1:52 AM 39.0 °F 31.8 °F 37.9 °F 96% 29.94 in 9.0 mi NE 11.5 mph - 0.00 in   Overcast
2:52 AM 39.0 °F 30.6 °F 37.9 °F 96% 29.94 in 8.0 mi NNE 15.0 mph 24.2 mph 0.00 in Rain Light Rain
3:52 AM 37.9 °F 29.6 °F 36.0 °F 93% 29.94 in 10.0 mi NNE 13.8 mph 24.2 mph 0.00 in Rain Light Rain
4:52 AM 37.0 °F 27.7 °F 36.0 °F 96% 29.94 in 9.0 mi NNE 16.1 mph 23.0 mph 0.00 in   Overcast
5:52 AM 37.0 °F 28.9 °F 36.0 °F 96% 29.94 in 4.0 mi NNE 12.7 mph 25.3 mph N/A   Overcast
6:41 AM 37.4 °F 27.2 °F 35.6 °F 93% 29.95 in 2.5 mi North 19.6 mph 27.6 mph 0.00 in Rain Light Rain
6:50 AM 37.4 °F 27.2 °F 35.6 °F 93% 29.94 in 2.5 mi NNE 19.6 mph 26.5 mph 0.00 in Rain Light Rain
6:52 AM 37.0 °F 27.7 °F 36.0 °F 96% 29.97 in 2.5 mi North 16.1 mph 26.5 mph 0.00 in Rain Light Rain
7:35 AM 37.4 °F 28.9 °F 35.6 °F 93% 29.99 in 2.0 mi North 13.8 mph 31.1 mph 0.00 in Rain , Thunderstorm Light Thunderstorms and Rain
7:39 AM 37.4 °F 29.3 °F 35.6 °F 93% 30.08 in 3.0 mi WNW 12.7 mph 43.7 mph 0.00 in Thunderstorm Overcast
7:47 AM 37.4 °F 31.4 °F 35.6 °F 93% 30.01 in 2.0 mi ENE 8.1 mph 19.6 mph 0.00 in Rain , Thunderstorm Heavy Thunderstorms and Rain
7:52 AM 37.9 °F 30.9 °F 36.0 °F 93% 29.98 in 2.5 mi NE 10.4 mph - 0.00 in Rain , Thunderstorm Thunderstorms and Rain
8:00 AM 37.4 °F 30.8 °F 35.6 °F 93% 29.94 in 4.0 mi ENE 9.2 mph - 0.00 in Rain , Thunderstorm Light Thunderstorms and Rain
8:22 AM 37.4 °F 29.8 °F 35.6 °F 93% 29.91 in 10.0 mi ESE 11.5 mph 29.9 mph 0.00 in Rain , Thunderstorm Light Thunderstorms and Rain
8:30 AM 37.4 °F 29.3 °F 35.6 °F 93% 29.89 in 10.0 mi ENE 12.7 mph 21.9 mph 0.00 in Rain Light Rain
8:52 AM 37.9 °F 33.5 °F 37.0 °F 97% 29.93 in 10.0 mi East 5.8 mph 17.3 mph 0.00 in   Overcast
9:52 AM 39.9 °F 33.9 °F 37.9 °F 93% 29.91 in 10.0 mi ENE 9.2 mph 19.6 mph N/A   Overcast
10:52 AM 39.9 °F 32.9 °F 37.9 °F 93% 29.97 in 10.0 mi North 11.5 mph - N/A   Overcast
11:18 AM 39.2 °F 31.6 °F 37.4 °F 93% 29.93 in 7.0 mi North 12.7 mph 18.4 mph N/A   Overcast
11:52 AM 39.0 °F 32.8 °F 37.0 °F 93% 29.98 in 6.0 mi North 9.2 mph 23.0 mph N/A   Overcast
12:52 PM 39.0 °F 30.3 °F 37.0 °F 93% 29.95 in 10.0 mi NNE 16.1 mph 24.2 mph N/A   Overcast
1:02 PM 39.2 °F 30.5 °F 37.4 °F 93% 29.92 in 10.0 mi NNE 16.1 mph 26.5 mph N/A   Overcast
1:52 PM 39.0 °F 34.0 °F 37.0 °F 93% 30.06 in 10.0 mi Variable 6.9 mph 18.4 mph 0.00 in   Overcast
2:52 PM 39.9 °F 32.9 °F 37.9 °F 93% 29.96 in 9.0 mi North 11.5 mph 20.7 mph 0.00 in Rain Light Rain
3:52 PM 39.9 °F 32.9 °F 37.0 °F 89% 29.99 in 10.0 mi NE 11.5 mph 21.9 mph 0.00 in   Overcast
4:52 PM 39.0 °F 33.4 °F 37.0 °F 93% 29.99 in 10.0 mi NNE 8.1 mph 20.7 mph N/A   Overcast
5:52 PM 39.0 °F 31.4 °F 37.0 °F 93% 29.95 in 9.0 mi NE 12.7 mph 20.7 mph N/A   Overcast
6:52 PM 39.0 °F 31.4 °F 37.0 °F 93% 29.93 in 10.0 mi NE 12.7 mph 21.9 mph N/A   Overcast
7:52 PM 39.0 °F 31.0 °F 37.0 °F 93% 29.91 in 10.0 mi NE 13.8 mph 20.7 mph N/A   Overcast
8:52 PM 39.0 °F 30.6 °F 37.9 °F 96% 29.89 in 8.0 mi NE 15.0 mph 21.9 mph N/A   Overcast
9:52 PM 39.9 °F 33.4 °F 37.9 °F 93% 29.96 in 8.0 mi NE 10.4 mph - 0.00 in Rain Light Rain
10:18 PM 39.2 °F 31.2 °F 37.4 °F 93% 29.90 in 2.5 mi NE 13.8 mph 25.3 mph N/A Rain Heavy Rain
10:35 PM 39.2 °F 29.8 °F 37.4 °F 93% 29.90 in 5.0 mi NE 18.4 mph 26.5 mph N/A Rain Light Rain
10:52 PM 39.0 °F 32.3 °F 37.0 °F 93% 29.93 in 6.0 mi NE 10.4 mph 21.9 mph N/A Rain Light Rain
11:52 PM 37.9 °F 30.5 °F 37.0 °F 97% 29.92 in 3.0 mi NE 11.5 mph 20.7 mph N/A Rain Rain